CW3442 Weather Reports


Display with metric or nautical units.
time (UTC)temp
F
wind
direction
speed
MPH
gust
MPH
rain 1hr
in
rain 24hr
in
rain mn
in
humidity
%
barometer
mb
20260906083543 54 334 0.0 0.0 0.00 0.00 0.00 94 1013.5
20260906080540 55 334 0.0 0.0 0.00 0.00 0.00 94 1013.2
20260906073538 55 334 0.0 0.0 0.00 0.00 0.00 94 1013.3
20260906070531 56 334 0.0 0.0 0.00 0.00 0.00 94 1013.0
20260906063538 56 334 0.0 0.0 0.00 0.00 0.00 94 1012.9
20260906060529 56 334 0.0 0.0 0.00 0.00 0.00 94 1012.9
20260906053537 56 334 0.0 0.0 0.00 0.00 0.00 94 1013.1
20260906050529 56 334 0.0 0.0 0.00 0.00 0.00 93 1012.7
20260906043529 57 334 0.0 0.0 0.00 0.00 0.00 93 1012.9
20260906040533 57 334 0.0 0.0 0.00 0.00 0.00 93 1012.8
20260906033531 57 334 0.0 0.0 0.00 0.00 0.00 92 1012.7
20260906030541 58 334 0.0 0.0 0.00 0.00 0.00 92 1012.7
20260906023536 58 334 0.0 0.0 0.00 0.00 0.00 92 1012.8
20260906020528 59 314 0.0 0.0 0.00 0.00 0.00 91 1012.6
20260906013541 60 75 0.0 0.0 0.00 0.00 0.00 91 1012.5
20260906010540 60 75 0.0 0.0 0.00 0.00 0.00 89 1012.0
20260906003530 62 88 0.0 0.0 0.00 0.00 0.00 86 1011.9
20260906000544 64 355 0.0 0.0 0.00 0.00 0.00 81 1011.7
20260905233540 66 160 0.0 0.0 0.00 0.00 0.00 76 1011.6
20260905230537 66 173 0.0 0.0 0.00 0.00 0.00 76 1011.3
20260905223532 67 173 0.0 0.0 0.00 0.00 0.00 75 1011.0
20260905220533 67 240 0.0 0.0 0.00 0.00 0.00 73 1010.8
20260905213544 68 257 0.0 0.0 0.00 0.00 0.00 71 1010.6
20260905210526 69 121 0.0 0.0 0.00 0.00 0.00 70 1010.1
20260905203603 69 94 0.0 0.0 0.00 0.00 0.00 69 1009.9
20260905200532 69 138 0.0 0.0 0.00 0.00 0.00 72 1009.6
20260905193539 69 84 0.0 0.0 0.00 0.00 0.00 73 1009.8
20260905190544 69 109 0.0 0.0 0.00 0.00 0.00 74 1010.1
20260905183538 69 117 0.0 0.0 0.00 0.00 0.00 75 1010.1
20260905180528 70 49 0.0 0.0 0.00 0.00 0.00 73 1010.0
20260905173525 68 86 0.0 0.0 0.00 0.00 0.00 80 1010.0
20260905170532 67 81 0.0 0.0 0.00 0.00 0.00 80 1010.1
20260905163536 67 342 0.0 0.0 0.00 0.00 0.00 80 1010.3
20260905160531 65 87 0.0 0.0 0.00 0.00 0.00 83 1010.2
20260905153551 67 68 0.0 0.0 0.00 0.00 0.00 81 1010.1
20260905150528 67 122 0.0 0.0 0.00 0.00 0.00 82 1010.1
20260905143539 67 78 0.0 0.0 0.00 0.00 0.00 82 1010.0
20260905140533 66 95 0.0 0.0 0.00 0.00 0.00 82 1010.0
20260905133537 67 81 0.0 0.0 0.00 0.00 0.00 82 1009.7
20260905130539 66 81 0.0 0.0 0.00 0.00 0.00 83 1009.3
20260905123537 64 302 0.0 0.0 0.00 0.00 0.00 90 1009.1
20260905120529 62 302 0.0 0.0 0.00 0.00 0.00 93 1009.0
20260905113558 62 302 0.0 0.0 0.00 0.00 0.00 94 1009.0
20260905110536 62 302 0.0 0.0 0.00 0.00 0.00 94 1009.0
20260905103531 62 302 0.0 0.0 0.00 0.00 0.00 94 1008.8
20260905100550 62 302 0.0 0.0 0.00 0.00 0.00 94 1008.7
20260905093550 62 302 0.0 0.0 0.00 0.00 0.00 94 1008.4
20260905090542 61 301 0.0 0.0 0.00 0.00 0.00 94 1008.1